Location: Cheyres
(46.8153°N, 6.7877°E)
Time: 14:35:24
(UTC+00:00)

NANOSAT C BR1 - Pass Details

Date: 02 July 2022
Orbit: 584 x 599 km, 98.0° (Epoch: 18 August)

Event Time Altitude Azimuth Distance (km) Brightness Sun altitude
Rises 01:18:20 0° 19° (NNE) 2,852 ? -16.5°
Reaches altitude 10° 01:20:36 10° 26° (NNE) 1,947 ? -16.3°
Maximum altitude 01:24:39 44° 99° (E) 839 ? -16.0°
Enters shadow 01:27:18 19° 163° (SSE) 1,426 ? -15.8°
